Location: Henham
(51.9333°N, 0.2500°E)
Time: 10:49:57
(UTC+00:00)

STARLINK-69 - Pass Details

Date: 23 October 2019
Orbit: 549 x 551 km, 53.0° (Epoch: 18 November)

Event Time Altitude Azimuth Distance (km) Brightness Sun altitude
Rises 18:31:26 0° 282° (WNW) 2,720 8.9 -16.4°
Reaches altitude 10° 18:33:40 10° 283° (WNW) 1,826 7.6 -16.8°
Maximum altitude 18:37:49 87° 8° (N) 556 3.5 -17.4°
Enters shadow 18:39:16 40° 101° (E) 822 4.0 -17.6°
